AKDT,Max TemperatureF,Mean TemperatureF,Min TemperatureF,Max Dew PointF,MeanDew PointF,Min DewpointF,Max Humidity, Mean Humidity, Min Humidity, Max Sea Level PressureIn, Mean Sea Level PressureIn, Min Sea Level PressureIn, Max VisibilityMiles, Mean VisibilityMiles, Min VisibilityMiles, Max Wind SpeedMPH, Mean Wind SpeedMPH, Max Gust SpeedMPH,PrecipitationIn, CloudCover, Events, WindDirDegrees
2012-10-1,46,38,30,37,33,29,93,85,70,30.48,30.10,29.86,10,10,5,5,2,,0.02,2,Rain,35
2012-10-2,45,38,30,35,32,28,96,83,58,30.65,30.58,30.51,10,10,7,8,2,,0.00,1,,40
2012-10-3,46,42,39,39,37,35,93,84,71,30.52,30.51,30.50,10,10,10,5,1,,0.00,8,Rain,37
2012-10-4,48,45,42,43,40,36,89,81,63,30.51,30.49,30.46,10,10,10,15,4,20,0.00,8,,231
2012-10-5,53,48,45,46,45,43,97,90,76,30.54,30.49,30.45,10,10,4,17,4,25,0.00,7,,226
2012-10-6,52,49,46,47,46,44,97,90,82,30.46,30.40,30.33,10,10,6,16,4,21,0.00,7,Rain,227
2012-10-7,50,48,46,46,46,44,100,91,83,30.35,30.31,30.22,10,10,7,7,1,,0.00,8,,233
2012-10-8,48,46,45,46,43,42,97,89,80,30.22,30.16,30.11,10,10,7,10,2,,0.00,6,,210
2012-10-9,55,48,42,43,41,32,96,88,42,30.12,30.09,30.06,10,10,7,13,1,23,0.00,7,,223
2012-10-10,54,50,46,33,32,30,59,50,43,30.16,30.08,29.98,10,10,10,18,11,26,0.00,7,,25
2012-10-11,46,42,39,31,23,19,56,45,38,30.00,29.89,29.67,10,10,10,18,13,28,0.00,7,,23
2012-10-12,42,38,34,32,23,20,92,55,45,29.65,29.45,29.37,10,10,4,17,10,25,0.04,8,Rain-Snow,29
2012-10-13,46,38,33,41,36,30,100,92,81,29.49,29.43,29.36,10,7,2,15,1,22,0.65,8,Rain-Snow,33
2012-10-14,48,42,37,41,40,37,97,89,64,29.43,29.17,29.02,10,10,6,9,1,16,0.03,7,Rain,241
2012-10-15,48,44,41,42,39,36,96,84,63,29.28,29.16,29.04,10,9,6,26,6,39,0.29,8,Rain,204
2012-10-16,46,42,39,39,37,25,93,79,47,29.76,29.36,29.09,10,10,10,30,8,38,0.02,6,Rain,205
2012-10-17,45,40,35,34,30,23,93,70,43,29.89,29.72,29.57,10,10,5,28,12,36,0.06,6,Rain,214
2012-10-18,41,38,35,36,34,30,93,84,70,29.78,29.75,29.63,10,10,5,24,10,33,0.08,8,Rain,157
2012-10-19,41,36,30,32,25,17,96,67,44,29.93,29.79,29.74,10,10,10,20,7,32,0.00,6,,33
2012-10-20,37,35,33,19,17,15,50,46,43,30.27,30.08,29.94,10,10,10,18,14,30,0.00,7,,32
2012-10-21,37,34,32,16,12,10,52,40,35,30.40,30.37,30.29,10,10,10,21,14,26,0.00,8,,30
2012-10-22,39,36,32,15,13,11,44,41,34,30.38,30.30,30.22,10,10,10,24,15,32,0.00,6,,28
2012-10-23,39,36,34,16,15,14,44,41,36,30.32,30.27,30.22,10,10,10,24,13,33,0.00,5,,29
2012-10-24,37,35,33,15,14,11,48,42,37,30.54,30.43,30.32,10,10,10,23,13,33,0.00,8,,29
2012-10-25,37,33,30,13,10,8,44,39,35,30.61,30.57,30.52,10,10,10,15,11,28,0.00,1,,24
2012-10-26,33,30,28,11,10,8,47,42,38,30.51,30.41,30.29,10,10,10,23,12,34,0.00,0,,25
2012-10-27,30,28,27,10,8,7,49,42,38,30.29,30.18,30.11,10,10,10,24,16,36,0.00,1,,25
2012-10-28,32,30,27,10,9,8,47,43,37,30.13,30.10,30.07,10,10,10,20,15,31,0.00,4,,25
2012-10-29,30,28,24,8,7,4,51,44,36,30.13,30.05,29.97,10,10,10,22,14,34,0.00,0,,34
2012-10-30,28,26,23,27,23,10,93,85,57,29.99,29.87,29.74,10,3,0,4,0,,0.27,8,Fog-Snow,35
2012-10-31,33,30,28,31,29,26,100,93,87,29.76,29.68,29.65,5,1,0,8,0,,0.61,8,Fog-Snow,204